Location: Newark
(31.5350°N, 35.0986°E)
Time: 20:41:42
(UTC+00:00)

Vanguard 1 - Pass Details

Date: 24 September 2019
Orbit: 653 x 3830 km, 34.2° (Epoch: 17 October)

Event Time Altitude Azimuth Distance (km) Brightness Sun altitude
Rises 18:42:36 0° 190° (S) 6,045 13.9 -39.5°
Enters shadow 18:44:38 - 184° (S) 5,794 13.8 -39.9°
Reaches altitude 10° 18:47:26 10° 177° (S) 5,513 - -40.4°
Maximum altitude 19:00:33 25° 129° (SE) 5,306 - -42.8°
Drops below altitude 10° 19:16:39 10° 85° (E) 6,936 - -45.6°
Exits shadow 19:22:48 - 75° (ENE) 7,783 14.4 -46.6°
Sets 19:23:41 0° 74° (ENE) 7,908 14.4 -46.7°
